TimeCST,TemperatureF,Dew PointF,Humidity,Sea Level PressureIn,VisibilityMPH,Wind Direction,Wind SpeedMPH,Gust SpeedMPH,PrecipitationIn,Events,Conditions,WindDirDegrees,DateUTC
12:15 AM,41.0,14.0,33,29.97,10.0,North,-9999.0,-,N/A,,Clear,0,2013-02-09 06:15:00
12:35 AM,41.0,14.0,33,29.97,10.0,North,-9999.0,-,N/A,,Clear,0,2013-02-09 06:35:00
12:55 AM,41.0,14.0,33,29.96,10.0,North,-9999.0,-,N/A,,Clear,0,2013-02-09 06:55:00
1:15 AM,39.2,14.0,36,29.95,10.0,North,-9999.0,-,N/A,,Clear,0,2013-02-09 07:15:00
1:35 AM,37.4,15.8,41,29.96,10.0,North,-9999.0,-,N/A,,Clear,0,2013-02-09 07:35:00
1:55 AM,37.4,15.8,41,29.95,10.0,North,-9999.0,-,N/A,,Clear,0,2013-02-09 07:55:00
2:15 AM,37.4,15.8,41,29.95,10.0,North,-9999.0,-,N/A,,Clear,0,2013-02-09 08:15:00
2:35 AM,35.6,15.8,44,29.93,10.0,North,-9999.0,-,N/A,,Clear,0,2013-02-09 08:35:00
2:55 AM,35.6,15.8,44,29.93,10.0,North,-9999.0,-,N/A,,Clear,0,2013-02-09 08:55:00
3:15 AM,35.6,15.8,44,29.91,10.0,North,-9999.0,-,N/A,,Scattered Clouds,0,2013-02-09 09:15:00
3:35 AM,33.8,17.6,52,29.90,10.0,North,-9999.0,-,N/A,,Scattered Clouds,0,2013-02-09 09:35:00
3:55 AM,35.6,17.6,48,29.89,10.0,North,-9999.0,-,N/A,,Clear,0,2013-02-09 09:55:00
4:15 AM,35.6,17.6,48,29.88,10.0,North,-9999.0,-,N/A,,Clear,0,2013-02-09 10:15:00
4:35 AM,35.6,17.6,48,29.87,10.0,North,-9999.0,-,N/A,,Clear,0,2013-02-09 10:35:00
4:55 AM,35.6,19.4,52,29.86,10.0,North,-9999.0,-,N/A,,Clear,0,2013-02-09 10:55:00
5:15 AM,37.4,19.4,48,29.86,10.0,North,-9999.0,-,N/A,,Clear,0,2013-02-09 11:15:00
5:35 AM,37.4,19.4,48,29.85,10.0,North,-9999.0,-,N/A,,Clear,0,2013-02-09 11:35:00
5:55 AM,37.4,19.4,48,29.85,10.0,North,-9999.0,-,N/A,,Clear,0,2013-02-09 11:55:00
6:15 AM,35.6,19.4,52,29.86,10.0,North,-9999.0,-,N/A,,Clear,0,2013-02-09 12:15:00
6:35 AM,35.6,19.4,52,29.85,10.0,North,-9999.0,-,N/A,,Clear,0,2013-02-09 12:35:00
6:55 AM,35.6,19.4,52,29.84,10.0,North,-9999.0,-,N/A,,Clear,0,2013-02-09 12:55:00
7:15 AM,33.8,19.4,56,29.84,10.0,North,-9999.0,-,N/A,,Clear,0,2013-02-09 13:15:00
7:35 AM,33.8,19.4,56,29.83,10.0,North,-9999.0,-,N/A,,Clear,0,2013-02-09 13:35:00
7:55 AM,32.0,19.4,60,29.83,10.0,North,-9999.0,-,N/A,,Clear,0,2013-02-09 13:55:00
8:15 AM,33.8,19.4,56,29.83,10.0,North,-9999.0,-,N/A,,Clear,0,2013-02-09 14:15:00
8:35 AM,35.6,21.2,56,29.83,10.0,North,-9999.0,-,N/A,,Clear,0,2013-02-09 14:35:00
8:55 AM,37.4,23.0,56,29.83,10.0,North,-9999.0,-,N/A,,Clear,0,2013-02-09 14:55:00
9:15 AM,41.0,24.8,53,29.83,10.0,North,-9999.0,-,N/A,,Clear,0,2013-02-09 15:15:00
9:35 AM,41.0,26.6,57,29.81,10.0,North,-9999.0,-,N/A,,Clear,0,2013-02-09 15:35:00
9:55 AM,44.6,28.4,53,29.80,10.0,North,-9999.0,-,N/A,,Clear,0,2013-02-09 15:55:00
10:15 AM,46.4,30.2,53,29.79,10.0,North,-9999.0,-,N/A,,Clear,0,2013-02-09 16:15:00
10:35 AM,48.2,32.0,54,29.78,10.0,North,-9999.0,-,N/A,,Clear,0,2013-02-09 16:35:00
10:55 AM,50.0,33.8,54,29.77,10.0,North,-9999.0,-,N/A,,Clear,0,2013-02-09 16:55:00
11:15 AM,51.8,35.6,54,29.76,10.0,North,-9999.0,-,N/A,,Clear,0,2013-02-09 17:15:00
11:35 AM,55.4,35.6,47,29.76,10.0,North,-9999.0,-,N/A,,Clear,0,2013-02-09 17:35:00
11:55 AM,55.4,35.6,47,29.74,10.0,North,-9999.0,-,N/A,,Clear,0,2013-02-09 17:55:00
12:15 PM,59.0,35.6,42,29.73,10.0,North,-9999.0,-,N/A,,Clear,0,2013-02-09 18:15:00
12:35 PM,59.0,33.8,39,29.71,10.0,North,-9999.0,-,N/A,,Clear,0,2013-02-09 18:35:00
12:55 PM,60.8,33.8,36,29.69,10.0,North,-9999.0,-,N/A,,Clear,0,2013-02-09 18:55:00
1:15 PM,62.6,33.8,34,29.66,10.0,North,-9999.0,-,N/A,,Clear,0,2013-02-09 19:15:00
1:35 PM,62.6,33.8,34,29.63,10.0,North,-9999.0,-,N/A,,Clear,0,2013-02-09 19:35:00
1:55 PM,64.4,33.8,32,29.61,10.0,North,-9999.0,-,N/A,,Clear,0,2013-02-09 19:55:00
2:15 PM,64.4,33.8,32,29.60,10.0,North,-9999.0,-,N/A,,Clear,0,2013-02-09 20:15:00
2:35 PM,68.0,32.0,26,29.58,10.0,North,-9999.0,-,N/A,,Clear,0,2013-02-09 20:35:00
2:55 PM,68.0,30.2,24,29.58,7.0,North,-9999.0,-,N/A,,Scattered Clouds,0,2013-02-09 20:55:00
3:15 PM,68.0,26.6,21,29.56,4.0,North,-9999.0,-,N/A,,Haze,0,2013-02-09 21:15:00
3:35 PM,68.0,19.4,16,29.55,4.0,North,-9999.0,-,N/A,,Haze,0,2013-02-09 21:35:00
3:55 PM,68.0,17.6,15,29.55,3.0,North,-9999.0,-,N/A,,Haze,0,2013-02-09 21:55:00
4:15 PM,68.0,14.0,12,29.55,3.0,North,-9999.0,-,N/A,,Haze,0,2013-02-09 22:15:00
4:35 PM,66.2,14.0,13,29.55,4.0,North,-9999.0,-,N/A,,Haze,0,2013-02-09 22:35:00
4:55 PM,66.2,10.4,11,29.55,3.0,North,-9999.0,-,N/A,,Haze,0,2013-02-09 22:55:00
5:15 PM,66.2,5.0,9,29.55,2.0,North,-9999.0,-,N/A,,Haze,0,2013-02-09 23:15:00
5:35 PM,64.4,3.2,9,29.55,1.2,North,-9999.0,-,N/A,,Haze,0,2013-02-09 23:35:00
5:55 PM,64.4,3.2,9,29.56,2.0,North,-9999.0,-,N/A,,Haze,0,2013-02-09 23:55:00
6:15 PM,59.0,12.2,16,29.57,4.0,North,-9999.0,-,N/A,,Haze,0,2013-02-10 00:15:00
6:35 PM,55.4,14.0,20,29.59,4.0,North,-9999.0,-,N/A,,Haze,0,2013-02-10 00:35:00
6:55 PM,51.8,17.6,26,29.62,7.0,North,-9999.0,-,N/A,,Overcast,0,2013-02-10 00:55:00
7:35 PM,46.4,19.4,34,29.66,10.0,North,-9999.0,-,N/A,,Clear,0,2013-02-10 01:35:00
7:55 PM,44.6,19.4,37,29.67,10.0,North,-9999.0,-,N/A,,Clear,0,2013-02-10 01:55:00
8:15 PM,44.6,15.8,31,29.67,10.0,North,-9999.0,-,N/A,,Clear,0,2013-02-10 02:15:00
8:35 PM,42.8,12.2,29,29.68,10.0,North,-9999.0,-,N/A,,Clear,0,2013-02-10 02:35:00
8:55 PM,42.8,14.0,31,29.68,10.0,North,-9999.0,-,N/A,,Clear,0,2013-02-10 02:55:00
9:15 PM,42.8,12.2,29,29.69,10.0,North,-9999.0,-,N/A,,Clear,0,2013-02-10 03:15:00
9:35 PM,41.0,12.2,31,29.69,10.0,North,-9999.0,-,N/A,,Clear,0,2013-02-10 03:35:00
9:55 PM,41.0,10.4,29,29.69,10.0,North,-9999.0,-,N/A,,Clear,0,2013-02-10 03:55:00
10:15 PM,41.0,10.4,29,29.69,10.0,North,-9999.0,-,N/A,,Clear,0,2013-02-10 04:15:00
10:35 PM,39.2,10.4,31,29.70,10.0,North,-9999.0,-,N/A,,Clear,0,2013-02-10 04:35:00
10:55 PM,39.2,10.4,31,29.70,10.0,North,-9999.0,-,N/A,,Clear,0,2013-02-10 04:55:00
11:15 PM,37.4,8.6,30,29.71,10.0,North,-9999.0,-,N/A,,Clear,0,2013-02-10 05:15:00
11:35 PM,37.4,8.6,30,29.71,10.0,North,-9999.0,-,N/A,,Clear,0,2013-02-10 05:35:00
11:55 PM,37.4,8.6,30,29.71,10.0,North,-9999.0,-,N/A,,Clear,0,2013-02-10 05:55:00